Regional Weather Roundup
Issued by NWS

Home | Current Version | Previous Version | Graphics & Text | Print | Product List | Glossary On
Versions: 1 2 3 4 5 6 7 8 9 10 11 12 13 14 15 16 17 18 19 20 21 22 23 24 25 26 27 28 29 30 31 32 33 34 35 36 37 38 39 40 41 42 43 44 45 46 47 48 49 50
000
ASUS43 KIND 181709
RWRIN

WEATHER ROUNDUP FOR INDIANA
NATIONAL WEATHER SERVICE INDIANAPOLIS IN
100 PM EDT FRI AUG 18 2017

NOTE: "FAIR" INDICATES FEW OR NO CLOUDS BELOW 12,000 FEET WITH NO
SIGNIFICANT WEATHER AND/OR OBSTRUCTIONS TO VISIBILITY.

* - STATION DOES NOT REPORT WEATHER SUCH AS PRECIPITATION OR FOG.

+ - STATION NOT QUALITY CONTROLLED BY THE NATIONAL WEATHER SERVICE.
    USE DATA WITH CAUTION...ESPECIALLY DEWPOINT AND RELATIVE
    HUMIDITY OBSERVATIONS.

INZ001>003-010>013-019-020-181800-
NORTHWEST INDIANA

CITY           SKY/WX    TMP DP  RH WIND       PRES   REMARKS
GARY /AIRPORT/ PTSUNNY   77  59  53 W14       29.89S
KNOX *+        MOSUNNY   73  64  73 W10       29.89S
LA PORTE +     CLOUDY    73  62  69 NW7       29.89F
MICHIGAN CITY+ CLOUDY    70  63  78 NW6       29.89F
MONTICELLO +   MOSUNNY   78  62  57 W13       29.90S
RENSSELAER +   PTSUNNY   77  61  57 W10       29.90F
VALPARAISO     PTSUNNY   77  63  61 W13       29.89F

$$

LMZ046-743>745-181800-
SOUTHERN LAKE MICHIGAN

STATION/POSITION TIME  TEMP    WIND        PRES    WAVE
                       AIR SEA DIR/SP/G            HT
                 (UTC) (F)     (DEG/KT/KT) (MB)    (FT)
BURNS HARBOR     1640   72     290/  5/  8 1012.5S
MICHIGAN CITY    1640   70     270/ 10/ 11   N/A
5NW MICH CITY    1700   70 74  310/ 10/ 14   N/A     3

$$

INZ004-005-014>016-021>024-181800-
NORTH CENTRAL INDIANA

CITY           SKY/WX    TMP DP  RH WIND       PRES   REMARKS
ELKHART        PTSUNNY   73  61  64 W14G21    29.88R
GOSHEN         CLOUDY    74  60  61 W16       29.87S
LOGANSPORT +   CLOUDY    73  63  68 W12G17    29.91S
PERU/GRISSOM   PTSUNNY   77  65  67 W13       29.90R
ROCHESTER +    PTSUNNY  N/A N/A N/A W14       29.90S
SOUTH BEND     CLOUDY    73  64  73 W14       29.88S
WARSAW +       CLOUDY    73  63  68 W15       29.89R

$$

INZ006>009-017-018-025>027-181800-
NORTHEAST INDIANA

CITY           SKY/WX    TMP DP  RH WIND       PRES   REMARKS
AUBURN +       PTSUNNY   75  61  60 W10G22    29.87F
FORT WAYNE     PTSUNNY   77  64  64 W15       29.88S
HUNTINGTON +   CLOUDY    75  63  66 W10G22    29.89S
KENDALLVILLE + CLOUDY    73  62  69 W13       29.88S

$$

INZ028-029-035-036-043>045-051>053-181800-
WEST CENTRAL INDIANA

CITY           SKY/WX    TMP DP  RH WIND       PRES   REMARKS
GREENCASTLE +  PTSUNNY   77  63  61 W9G17     29.94F
LAFAYETTE      PTSUNNY   78  65  63 W13       29.90F
TERRE HAUTE    PTSUNNY   80  63  55 W13       29.95S

$$

INZ030>032-037>040-046>048-054>057-064-065-181800-
CENTRAL INDIANA

CITY           SKY/WX    TMP DP  RH WIND       PRES   REMARKS
ANDERSON       PTSUNNY   79  64  61 MISG      29.93S
CP ATTERBURY + MOSUNNY   81  61  50 W14       29.94S
COLUMBUS       MOSUNNY   81  59  47 W14G21    29.94S
FRANKFORT +    CLOUDY    80  67  65 W12       29.94S
GREENWOOD *+   PTSUNNY   78  61  56 W14G23    29.94S
INDIANAPOLIS   PTSUNNY   82  63  52 W14G21    29.93R
-EAGLE CREEK   CLOUDY    79  62  56 W13G20    29.92S
KOKOMO +       CLOUDY    76  66  71 W13       29.92S
MARION +       CLOUDY    73  64  73 W13G20    29.92R
MT COMFORT *+  MOSUNNY   79  63  57 W12G17    29.93R
SHELBYVILLE    MOSUNNY   81  62  52 W14G20    29.92S
ZIONSVILLE +   PTSUNNY   78  64  63 W13G21    29.94R

$$

INZ033-034-041-042-049-050-058-059-181800-
EAST CENTRAL INDIANA

CITY           SKY/WX    TMP DP  RH WIND       PRES   REMARKS
MUNCIE         PTSUNNY   79  63  57 W12G23    29.91R
RICHMOND +     PTSUNNY   75  64  69 W15       29.93S

$$

INZ060-061-067>069-081>083-085>088-181800-
SOUTHWEST INDIANA

CITY           SKY/WX    TMP DP  RH WIND       PRES   REMARKS
EVANSVILLE     MOSUNNY   84  66  54 SW10      29.98S
HUNTINGBURG +  MOSUNNY   82  69  64 W10       29.97S
WASHINGTON +   MOSUNNY   82  61  49 MISG      29.96S

$$

INZ062-063-066-070>080-084-089>092-181800-
SOUTH CENTRAL AND SOUTHEAST INDIANA

CITY           SKY/WX    TMP DP  RH WIND       PRES   REMARKS
BLOOMINGTON    MOSUNNY   82  61  48 W13G20    29.95S
MADISON *+     PTSUNNY   81  63  54 W8        29.97S
NORTH VERNON + MOSUNNY   79  64  61 W9G16     29.94F
SEYMOUR +      MOSUNNY   84  64  51 W13       29.93F

$$





USA.gov is the U.S. government's official web portal to all federal, state and local government web resources and services.